Location: Cheching
(60.0667°N, 164.2167°W)
Time: 14:27:39
(UTC+00:00)

LilacSat-2 - Pass Details

Date: 24 January 2021
Orbit: 512 x 533 km, 97.5° (Epoch: 05 March)

Event Time Altitude Azimuth Distance (km) Brightness Sun altitude
Rises 03:52:00 0° 174° (S) 2,637 ? -7.4°
Reaches altitude 10° 03:54:07 10° 179° (S) 1,758 ? -7.7°
Maximum altitude 03:57:51 56° 258° (WSW) 629 ? -8.1°
Drops below altitude 10° 04:01:39 10° 338° (NNW) 1,784 ? -8.5°
Sets 04:03:48 0° 343° (NNW) 2,682 ? -8.8°
